Terminal Aerodrome Forecast
Issued by NWS

Home | Current Version | Previous Version | Text Only | Print | Product List | Glossary On
Versions: 1 2 3 4 5 6 7 8 9 10 11 12 13 14 15 16 17 18 19 20 21 22 23 24 25 26 27 28 29 30 31 32
845
FTUS41 KBOX 232117 AAC
TAFHYA
TAF AMD
KHYA 232117Z 2321/2418 20010KT P6SM SKC
     FM232300 22012KT P6SM SCT006
     FM240300 23010KT 3/4SM BR BKN005
     FM241100 22006KT 1SM BR SCT003 BKN025=

USA.gov is the U.S. government's official web portal to all federal, state and local government web resources and services.